This demonstration page uses our WeatherBlox Daily Observations layout. Learn more.

Left ArrowRight Arrow

36.17497, -115.13722

Hourly Observations for January 17, 2017

Temp ( °F °C ) Dew Point ( °F °C ) Humidity (%) Winds ( mph kmh ) Pressure ( in mb ) Visibility ( mi km ) Precip ( " mm )
12:53 am 00:53 Clear 42 5.6 18 -7.8 38 38 NW 10 17 30.19 1022 10 16 N/A
1:53 am 01:53 Clear 41 5 19 -7.2 41 41 N N/A 30.19 1022 10 16 N/A
2:53 am 02:53 Clear 40 4.4 19 -7.2 43 43 NNW 8 13 30.19 1023 10 16 N/A
3:53 am 03:53 Clear 42 5.6 18 -7.8 38 38 NNW 3 6 30.19 1022 10 16 N/A
4:53 am 04:53 Clear 40 4.4 18 -7.8 41 41 WNW 6 9 30.19 1023 10 16 N/A
5:53 am 05:53 Clear 38 3.3 21 -6.1 51 51 SW 5 7 30.22 1023 10 16 N/A
6:53 am 06:53 Sunny 37 2.8 21 -6.1 52 52 W 6 9 30.23 1024 10 16 N/A
7:53 am 07:53 Sunny 39 3.9 22 -5.6 50 50 N N/A 30.25 1025 10 16 N/A
8:53 am 08:53 Sunny 45 7.2 17 -8.3 33 33 NW 10 17 30.27 1025 10 16 N/A
9:53 am 09:53 Sunny 49 9.4 17 -8.3 28 28 N N/A 30.27 1025 10 16 N/A
10:53 am 10:53 Sunny 50 10 18 -7.8 28 28 VRB 3 6 30.27 1025 10 16 N/A
11:53 am 11:53 Sunny 51 10.6 17 -8.3 26 26 N N/A 30.23 1024 10 16 N/A
12:53 pm 12:53 Sunny 52 11.1 16 -8.9 24 24 N N/A 30.21 1023 10 16 N/A
1:53 pm 13:53 Sunny 53 11.7 15 -9.4 22 22 SSE 6 9 30.19 1022 10 16 N/A
2:53 pm 14:53 Sunny 54 12.2 17 -8.3 23 23 N N/A 30.18 1022 10 16 N/A
3:53 pm 15:53 Sunny 54 12.2 17 -8.3 23 23 N N/A 30.18 1022 10 16 N/A
4:53 pm 16:53 Clear 53 11.7 17 -8.3 24 24 N N/A 30.19 1022 10 16 N/A
5:53 pm 17:53 Clear 50 10 19 -7.2 29 29 NW 3 6 30.21 1023 10 16 N/A
6:53 pm 18:53 Clear 47 8.3 21 -6.1 36 36 WNW 5 7 30.22 1024 10 16 N/A
7:53 pm 19:53 Clear 45 7.2 23 -5 42 42 N 3 6 30.22 1024 10 16 N/A
8:53 pm 20:53 Clear 43 6.1 24 -4.4 47 47 NW 6 9 30.22 1023 10 16 N/A
9:53 pm 21:53 Clear 41 5 23 -5 49 49 NNW 6 9 30.22 1023 10 16 N/A
10:53 pm 22:53 Clear 40 4.4 21 -6.1 47 47 NW 6 9 30.22 1023 10 16 N/A
11:53 pm 23:53 Clear 40 4.4 22 -5.6 49 49 WNW 5 7 30.21 1023 10 16 N/A

Powered by AerisWeather